Sanders, Before Seed, Beyond Harvest
OptiGro Location.

Weather

  • Currently

    Reported at Greenville, Greenville Municipal Airport, MS
    12:53 PM CST TUE MAR 28 2017
  • 79°F26°C
  • Mostly Cloudy
    Mostly Cloudy
  • Feels Like:80°F27°CDew Point:64°F18°CHumidity:61% Winds: Calm Calm
    Pressure:29.94 in1014 hPaVisibility:7.00 miles11263.00 meters
Time Weather Temp Dew Point
Humidity Winds Visibility Pressure Precipitation
1 hr 24 hr
Wednesday, March 29
14:15 14:15 Sunny Sunny 80°F27°C 63°F17°C 55% CalmCalm 10.0 miles16.1 km 29.94 in1014 hPa 0.00 in0.00 mm --
13:55 13:55 Sunny Sunny 80°F26°C 62°F17°C 55% N 6 mphN 9 kph 10.0 miles16.1 km 29.94 in1014 hPa 0.00 in0.00 mm --
13:35 13:35 Sunny Sunny 79°F26°C 63°F17°C 58% CalmCalm 10.0 miles16.1 km 29.97 in1015 hPa 0.00 in0.00 mm --
13:15 13:15 Sunny Sunny 78°F26°C 63°F17°C 59% N 6 mphN 9 kph 10.0 miles16.1 km 29.97 in1015 hPa 0.00 in0.00 mm --
12:55 12:55 Sunny Sunny 78°F25°C 63°F17°C 60% CalmCalm 10.0 miles16.1 km 29.97 in1015 hPa 0.00 in0.00 mm --
12:35 12:35 Sunny Sunny 77°F25°C 63°F17°C 61% CalmCalm 10.0 miles16.1 km 29.97 in1015 hPa 0.00 in0.00 mm --
12:15 12:15 Sunny Sunny 75°F24°C 62°F17°C 64% SW 3 mphSW 6 kph 10.0 miles16.1 km 30 in1016 hPa 0.00 in0.00 mm --
11:55 11:55 Sunny Sunny 76°F24°C 64°F18°C 67% CalmCalm 10.0 miles16.1 km 30 in1016 hPa 0.00 in0.00 mm --
11:35 11:35 Sunny Sunny 74°F24°C 65°F18°C 73% CalmCalm 10.0 miles16.1 km 30 in1016 hPa 0.00 in0.00 mm --
11:15 11:15 Sunny Sunny 73°F23°C 65°F18°C 75% CalmCalm 10.0 miles16.1 km 30 in1016 hPa 0.00 in0.00 mm --
10:55 10:55 Sunny Sunny 73°F23°C 65°F19°C 78% CalmCalm 10.0 miles16.1 km 30 in1016 hPa 0.00 in0.00 mm --
10:35 10:35 Sunny Sunny 72°F22°C 65°F19°C 80% CalmCalm 10.0 miles16.1 km 30 in1016 hPa 0.00 in0.00 mm --
10:15 10:15 Sunny Sunny 71°F22°C 64°F18°C 80% CalmCalm 10.0 miles16.1 km 30 in1016 hPa 0.00 in0.00 mm --
09:55 09:55 Sunny Sunny 70°F21°C 64°F18°C 81% E 5 mphE 7 kph 10.0 miles16.1 km 30 in1016 hPa 0.00 in0.00 mm --
09:35 09:35 Partly Cloudy Partly Cloudy 69°F20°C 63°F17°C 81% ENE 7 mphENE 11 kph 10.0 miles16.1 km 30 in1016 hPa 0.00 in0.00 mm --
09:15 09:15 Mostly Cloudy Mostly Cloudy 67°F19°C 63°F17°C 87% ENE 3 mphENE 6 kph 10.0 miles16.1 km 30 in1016 hPa 0.00 in0.00 mm --
08:55 08:55 Sunny Sunny 66°F19°C 63°F17°C 92% NNE 6 mphNNE 9 kph 10.0 miles16.1 km 29.97 in1015 hPa 0.00 in0.00 mm --
08:35 08:35 Sunny Sunny 64°F18°C 64°F18°C 100% NNE 3 mphNNE 6 kph 10.0 miles16.1 km 29.97 in1015 hPa 0.00 in0.00 mm --
08:15 08:15 Sunny Sunny 62°F17°C 62°F17°C 100% NNE 3 mphNNE 6 kph 10.0 miles16.1 km 29.97 in1015 hPa 0.00 in0.00 mm --
07:55 07:55 Sunny Sunny 61°F16°C 61°F16°C 100% CalmCalm 10.0 miles16.1 km 29.97 in1015 hPa 0.00 in0.00 mm --
07:35 07:35 Sunny Sunny 59°F15°C 59°F15°C 100% NNW 3 mphNNW 6 kph 7.0 miles11.3 km 29.97 in1015 hPa 0.00 in0.00 mm --
07:15 07:15 Sunny Sunny 58°F15°C 58°F15°C 100% NNW 3 mphNNW 6 kph 7.0 miles11.3 km 29.94 in1014 hPa 0.00 in0.00 mm --
06:55 06:55 Sunny Sunny 59°F15°C 59°F15°C 100% CalmCalm 7.0 miles11.3 km 29.94 in1014 hPa 0.00 in0.00 mm --
06:35 06:35 Clear Clear 60°F16°C 60°F16°C 100% CalmCalm 10.0 miles16.1 km 29.94 in1014 hPa 0.00 in0.00 mm --
06:15 06:15 Clear Clear 60°F16°C 60°F16°C 100% CalmCalm 10.0 miles16.1 km 29.94 in1014 hPa 0.00 in0.00 mm --
05:55 05:55 Clear Clear 61°F16°C 61°F16°C 100% N 3 mphN 6 kph 10.0 miles16.1 km 29.91 in1013 hPa 0.00 in0.00 mm --
05:35 05:35 Clear Clear 61°F16°C 61°F16°C 100% N 5 mphN 7 kph 10.0 miles16.1 km 29.91 in1013 hPa 0.00 in0.00 mm --
05:15 05:15 Clear Clear 62°F16°C 62°F16°C 100% NNW 3 mphNNW 6 kph 10.0 miles16.1 km 29.91 in1013 hPa 0.00 in0.00 mm --
04:55 04:55 Partly Cloudy Partly Cloudy 62°F17°C 62°F17°C 100% NNW 5 mphNNW 7 kph 10.0 miles16.1 km 29.91 in1013 hPa 0.00 in0.00 mm --
04:35 04:35 Mostly Cloudy Mostly Cloudy 62°F17°C 62°F17°C 100% NNW 6 mphNNW 9 kph 10.0 miles16.1 km 29.91 in1013 hPa 0.00 in0.00 mm --
04:15 04:15 Cloudy Cloudy 63°F17°C 63°F17°C 100% N 5 mphN 7 kph 10.0 miles16.1 km 29.91 in1013 hPa 0.00 in0.00 mm --
03:55 03:55 Mostly Cloudy Mostly Cloudy 63°F17°C 63°F17°C 100% CalmCalm 10.0 miles16.1 km 29.91 in1013 hPa 0.00 in0.00 mm --
03:35 03:35 Clear Clear 63°F17°C 63°F17°C 100% CalmCalm 10.0 miles16.1 km 29.91 in1013 hPa 0.00 in0.00 mm --
03:15 03:15 Partly Cloudy Partly Cloudy 64°F18°C 64°F18°C 100% NNW 6 mphNNW 9 kph 10.0 miles16.1 km 29.91 in1013 hPa 0.00 in0.00 mm --
02:55 02:55 Cloudy Cloudy 64°F18°C 64°F18°C 99% N 3 mphN 6 kph 10.0 miles16.1 km 29.91 in1013 hPa 0.00 in0.00 mm --
02:35 02:35 Partly Cloudy Partly Cloudy 64°F18°C 64°F18°C 100% CalmCalm 10.0 miles16.1 km 29.91 in1013 hPa 0.00 in0.00 mm --
02:15 02:15 Clear Clear 64°F18°C 64°F18°C 100% N 5 mphN 7 kph 10.0 miles16.1 km 29.91 in1013 hPa 0.00 in0.00 mm --
01:55 01:55 Clear Clear 65°F18°C 64°F18°C 97% N 5 mphN 7 kph 10.0 miles16.1 km 29.91 in1013 hPa 0.00 in0.00 mm --
01:35 01:35 Clear Clear 67°F19°C 64°F18°C 91% N 8 mphN 13 kph 10.0 miles16.1 km 29.88 in1012 hPa 0.00 in0.00 mm --
01:15 01:15 Clear Clear 68°F20°C 63°F17°C 82% NW 7 mphNW 11 kph 10.0 miles16.1 km 29.88 in1012 hPa 0.00 in0.00 mm --
00:55 00:55 Clear Clear 69°F20°C 65°F18°C 87% WNW 6 mphWNW 9 kph 10.0 miles16.1 km 29.88 in1012 hPa 0.00 in0.00 mm --
00:35 00:35 Partly Cloudy Partly Cloudy 70°F21°C 69°F20°C 97% W 5 mphW 7 kph 10.0 miles16.1 km 29.88 in1012 hPa 0.00 in0.00 mm --
00:15 00:15 Mostly Cloudy Mostly Cloudy 71°F21°C 69°F21°C 95% W 6 mphW 9 kph 10.0 miles16.1 km 29.88 in1012 hPa 0.00 in0.00 mm --